Weather History for KOXB - November, 2011

Change the Weather History Date:

Wednesday, November 2, 2011

  Actual Average (KSBY) Record (KSBY)
Temperature  
Mean Temperature 46 °F 52 °F  
Max Temperature 59 °F 63 °F 81 °F (1974)
Min Temperature 36 °F 41 °F 25 °F (1908)
Degree Days  
Heating Degree Days 18 13  
Month to date heating degree days 26  
Since 1 July heating degree days 339  
Cooling Degree Days 0 0  
Month to date cooling degree days 0  
Year to date cooling degree days 1150  
Moisture  
Dew Point 38 °F    
Average Humidity 78    
Maximum Humidity 97    
Minimum Humidity 47    
Precipitation  
Precipitation 0.00 in 0.12 in 1.11 in (1999)
Month to date precipitation 0.24  
Year to date precipitation 38.78  
Snow  
Snow 0.00 in 0.00 in 0.00 in (2002)
Since 1 July snowfall 0.0  
Snow Depth -    
Sea Level Pressure  
Sea Level Pressure 30.35 in    
Wind  
Wind Speed 5 mph (North)    
Max Wind Speed 10 mph    
Max Gust Speed 16 mph    
Visibility 10 miles    
Events      
T = Trace of Precipitation, MM = Missing Value Source: NWS Daily Summary

Daily Weather History Graph

Daily Weather History Graph

Search for Another Location

Airport or City:

Trip Planner

Search our weather history database for the weather conditions in past years. The results will help you decide how hot, cold, wet, or windy it might be!

Date:

Astronomy

Nov. 02, 2011 Rise Set
Actual Time 7:27 AM EDT 6:00 PM EDT
Civil Twilight 7:00 AM EDT 6:27 PM EDT
Nautical Twilight 6:28 AM EDT 6:58 PM EDT
Astronomical Twilight 5:57 AM EDT 7:29 PM EDT
Moon 1:45 PM EDT (11/2) No Moon Set
Length of Visible Light 11h 27m
Length of Day
10h 32m
Waxing Crescent, 50% of the Moon is Illuminated
Nov 2
Waxing Crescent
Nov 2
First Quarter
Nov 10
Full
Nov 18
Last Quarter
Nov 25
New

Hourly Weather History & Observations

Time (EDT) Temp. Windchill Dew Point Humidity Pressure Visibility Wind Dir Wind Speed Gust Speed Precip Events Conditions
12:53 AM 39.0 °F 35.7 °F 36.0 °F 89% 30.33 in 10.0 mi NNW 4.6 mph - N/A   Clear
1:53 AM 36.0 °F 32.1 °F 34.0 °F 93% 30.33 in 10.0 mi NW 4.6 mph - N/A   Clear
2:53 AM 36.0 °F 31.1 °F 34.0 °F 93% 30.34 in 10.0 mi NNW 5.8 mph - N/A   Clear
3:53 AM 37.0 °F 33.3 °F 34.0 °F 89% 30.34 in 10.0 mi NNW 4.6 mph - N/A   Clear
5:53 AM 37.9 °F 33.5 °F 35.1 °F 89% 30.37 in 10.0 mi NNW 5.8 mph - N/A   Clear
6:53 AM 37.0 °F 32.4 °F 35.1 °F 93% 30.38 in 10.0 mi NNW 5.8 mph - N/A   Clear
8:53 AM 46.0 °F 44.8 °F 41.0 °F 83% 30.42 in 10.0 mi NNW 3.5 mph - N/A   Clear
9:53 AM 54.0 °F - 42.1 °F 64% 30.41 in 10.0 mi NNE 3.5 mph - N/A   Clear
10:53 AM 57.0 °F - 42.1 °F 57% 30.41 in 10.0 mi NNE 8.1 mph - N/A   Clear
11:53 AM 57.0 °F - 42.1 °F 57% 30.40 in 10.0 mi NE 9.2 mph 16.1 mph N/A   Clear
1:53 PM 57.9 °F - 37.9 °F 47% 30.36 in 10.0 mi NNE 10.4 mph - N/A   Clear
2:53 PM 57.0 °F - 39.0 °F 51% 30.34 in 10.0 mi East 8.1 mph - N/A   Clear
3:53 PM 55.9 °F - 39.0 °F 53% 30.34 in 10.0 mi ENE 6.9 mph - N/A   Clear
4:53 PM 55.0 °F - 39.9 °F 57% 30.33 in 10.0 mi ENE 6.9 mph - N/A   Clear
6:53 PM 46.0 °F - 41.0 °F 83% 30.33 in 10.0 mi Calm Calm - N/A   Clear
7:53 PM 42.1 °F - 39.9 °F 92% 30.32 in 10.0 mi Calm Calm - N/A   Clear
8:53 PM 41.0 °F - 37.9 °F 89% 30.31 in 10.0 mi Calm Calm - N/A   Clear
9:53 PM 37.9 °F - 37.0 °F 97% 30.31 in 10.0 mi Calm Calm - N/A   Clear
11:53 PM 36.0 °F - 35.1 °F 97% 30.30 in 7.0 mi Calm Calm - N/A   Clear